Content
SEND FEEDBACK

Daily
Averages
Monthly
Summary
Philippines

QUEZON CITY, PHILIPPINES


Home > Asia > Philippines
Elevation: 151 feet     Latitude: 14 39N     Longitude: 121 03E

WEATHER
 
SELECT A DAY
Number of Records: 172,482;   Date Range: 7/1/96 - 7/26/14
 
SHARE

PRINT THIS DATA

[ ← Previous Day ]
WEATHER ALMANAC - JUNE 29, 2013
[ Next Day → ]
[ °C ]   °F
We're sorry. There is no daily almanac available for Quezon City, Philippines on June 29, 2013.
WEATHER BY HOUR - JUNE 29, 2013
[ °C ]   °F
Local TimeTemperatureDewpointHumidityBarometerVisibilityWind DirectionWind SpeedGust SpeedPrecipitationEventsConditions
1:00 AM82.4 °F77.0 °F84 %29.77 in6.2 miSW (220°)1.2 mphScattered Clouds
2:00 AM82.0 °F77.0 °F81 %29.77 in6.0 miCalmHaze
2:00 AM82.4 °F77.0 °F84 %29.77 in6.2 miWSW (250°)2.3 mphScattered Clouds
3:00 AM82.4 °F77.0 °F84 %29.77 in5.6 miNorth (10°)3.5 mphScattered Clouds
4:00 AM82.4 °F77.0 °F84 %29.77 in5.6 miVariable1.2 mphScattered Clouds
5:00 AM82.4 °F77.0 °F84 %29.74 in5.6 miVariable1.2 mphScattered Clouds
5:00 AM82.0 °F78.0 °F83 %29.75 in6.0 miSSE (150°)2.2 mphHaze
6:00 AM82.4 °F78.8 °F89 %29.77 in5.0 miVariable2.3 mphScattered Clouds
7:00 AM84.2 °F77.0 °F79 %29.80 in5.6 miSSW (210°)1.2 mphScattered Clouds
8:00 AM84.2 °F77.0 °F79 %29.80 in6.2 miWSW (240°)2.3 mphMostly Cloudy
8:00 AM85.0 °F77.0 °F72 %29.81 in6.0 miWSW (240°)2.2 mphHaze
9:00 AM86.0 °F77.0 °F74 %29.80 in5.6 miWest (260°)2.3 mphMostly Cloudy
10:00 AM87.8 °F71.6 °F58 %29.80 in5.6 miNNW (330°)3.5 mphMostly Cloudy
11:00 AM89.0 °F73.0 °F51 %29.81 in6.0 miWNW (290°)6.7 mphHaze
11:00 AM89.6 °F73.4 °F59 %29.80 in5.6 miWNW (290°)8.1 mphScattered Clouds
12:00 PM91.4 °F71.6 °F52 %29.77 in6.2 miNE (50°)10.4 mphScattered Clouds
1:00 PM84.2 °F77.0 °F79 %29.74 in5.6 miNE (50°)13.8 mphRainLight Rain Showers
2:00 PM87.8 °F75.2 °F66 %29.74 in6.2 miENE (60°)5.8 mphMostly Cloudy
2:00 PM87.0 °F75.0 °F60 %29.75 in6.0 miENE (60°)4.5 mphRainLight Rain Showers
3:00 PM87.8 °F75.2 °F66 %29.71 in6.2 miEast (100°)4.6 mphMostly Cloudy
4:00 PM84.2 °F77.0 °F79 %29.71 in6.2 miESE (120°)4.6 mphMostly Cloudy
4:20 PM84.2 °F78.8 °F84 %29.71 in6.2 miEast (100°)5.8 mphRainLight Rain Showers
5:00 PM83.0 °F79.0 °F86 %29.75 in6.0 miESE (120°)4.5 mphRainLight Rain Showers
5:00 PM82.4 °F78.8 °F89 %29.74 in6.2 miSE (130°)4.6 mphRainLight Rain Showers
6:00 PM82.4 °F78.8 °F89 %29.68 in6.2 miSSW (200°)4.6 mphMostly Cloudy
7:00 PM80.6 °F78.8 °F94 %29.71 in6.2 miESE (110°)4.6 mphRainLight Rain Showers
8:00 PM80.6 °F77.0 °F89 %29.71 in6.2 miNorth (360°)6.9 mphRainLight Rain
8:00 PM81.0 °F77.0 °F83 %29.73 in6.0 miNorth6.7 mphRainLight Rain
9:00 PM80.0 °F76.0 °F83 %29.73 in6.0 miNorth8.9 mphRainLight Rain
9:00 PM80.6 °F75.2 °F84 %29.71 in6.2 miNorth (360°)8.1 mphRainLight Rain
10:00 PM76.0 °F76.0 °F100 %29.75 in4.0 miNorth8.9 mphRainRain
10:00 PM77.0 °F77.0 °F100 %29.74 in4.3 miNorth (360°)8.1 mphRainRain
11:00 PM78.0 °F78.0 °F99 %29.73 in6.0 miNW (320°)11.2 mphRainLight Rain
11:00 PM78.8 °F77.0 °F94 %29.68 in5.6 miNW (320°)11.5 mphRainLight Rain
Hourly data recorded from RPLL, located miles away from Quezon City, Philippines







STORIES FROM OUR PARTNERS